Weather History for Williston, ND

Change the Weather History Date:

Saturday, September 28, 2013

  Actual Average Record
Temperature  
Mean Temperature 52 °F 51 °F  
Max Temperature 66 °F 65 °F 92 °F (1897)
Min Temperature 37 °F 37 °F 21 °F (1907)
Degree Days  
Heating Degree Days 13 14  
Month to date heating degree days 124 245  
Since 1 July heating degree days 170 316  
Cooling Degree Days 0 0  
Month to date cooling degree days 78 24  
Year to date cooling degree days 405 453  
Growing Degree Days 2 (Base 50)    
Moisture  
Dew Point 36 °F    
Average Humidity 61    
Maximum Humidity 92    
Minimum Humidity 30    
Precipitation  
Precipitation 0.00 in 0.03 in 0.49 in (1982)
Month to date precipitation 1.90 0.99  
Year to date precipitation 17.79 12.11  
Snow  
Snow 0.00 in 0.10 in T in (1985)
Month to date snowfall 0.0 0.2  
Since 1 July snowfall 0.0 0.2  
Since 1 September snowfall 0.0 0.2  
Snow Depth 0.00 in    
Sea Level Pressure  
Sea Level Pressure 29.79 in    
Wind  
Wind Speed 8 mph (WSW)    
Max Wind Speed 24 mph    
Max Gust Speed 30 mph    
Visibility 10 miles    
Events      
T = Trace of Precipitation, MM = Missing Value Source: NWS Daily Summary

Daily Weather History Graph

Daily Weather History Graph

Search for Another Location

Airport:

Trip Planner

Search our weather history database for the weather conditions in past years. The results will help you decide how hot, cold, wet, or windy it might be!

Date:

Astronomy

Sep. 28, 2013 Rise Set
Actual Time 7:50 AM CDT 7:39 PM CDT
Civil Twilight 7:18 AM CDT 8:10 PM CDT
Nautical Twilight 6:42 AM CDT 8:46 PM CDT
Astronomical Twilight 6:05 AM CDT 9:23 PM CDT
Moon 1:15 AM CDT (9/28) 4:21 PM CDT (9/28)
Length of Visible Light 12h 51m
Length of Day
11h 49m
Waning Crescent, 36% of the Moon is Illuminated
Sep 28
Waning Crescent
Oct 4
New
Oct 11
First Quarter
Oct 18
Full
Oct 26
Last Quarter

Hourly Weather History & Observations

Time (CDT) Temp. Windchill Dew Point Humidity Pressure Visibility Wind Dir Wind Speed Gust Speed Precip Events Conditions
12:52 AM 44.1 °F - 37.0 °F 76% 29.83 in 10.0 mi Calm Calm - N/A   Clear
1:52 AM 45.0 °F 41.8 °F 37.0 °F 74% 29.84 in 10.0 mi SW 5.8 mph - N/A   Clear
2:52 AM 42.1 °F 38.4 °F 37.0 °F 82% 29.83 in 10.0 mi South 5.8 mph - N/A   Clear
3:52 AM 41.0 °F 35.2 °F 36.0 °F 82% 29.83 in 10.0 mi SW 9.2 mph - N/A   Clear
4:52 AM 37.9 °F 32.7 °F 35.1 °F 89% 29.83 in 10.0 mi SW 6.9 mph - N/A   Clear
5:52 AM 39.0 °F 34.0 °F 36.0 °F 89% 29.83 in 10.0 mi SSW 6.9 mph - N/A   Mostly Cloudy
6:52 AM 41.0 °F 35.8 °F 36.0 °F 82% 29.81 in 10.0 mi SSW 8.1 mph - N/A   Overcast
7:52 AM 41.0 °F 38.0 °F 37.0 °F 86% 29.80 in 10.0 mi SSW 4.6 mph - N/A   Overcast
8:52 AM 42.1 °F 39.2 °F 37.9 °F 85% 29.81 in 10.0 mi SSW 4.6 mph - N/A   Overcast
9:52 AM 43.0 °F - 37.9 °F 82% 29.81 in 10.0 mi Calm Calm - N/A   Overcast
10:52 AM 51.1 °F - 39.0 °F 63% 29.80 in 10.0 mi WSW 13.8 mph - N/A   Scattered Clouds
11:52 AM 55.9 °F - 39.0 °F 53% 29.78 in 10.0 mi WSW 11.5 mph - N/A   Overcast
12:52 PM 57.0 °F - 39.0 °F 51% 29.77 in 10.0 mi WSW 12.7 mph - N/A   Scattered Clouds
1:52 PM 62.1 °F - 35.1 °F 37% 29.75 in 10.0 mi West 17.3 mph 28.8 mph N/A   Clear
2:52 PM 63.0 °F - 36.0 °F 37% 29.73 in 10.0 mi West 19.6 mph 26.5 mph N/A   Scattered Clouds
3:52 PM 63.0 °F - 33.1 °F 33% 29.73 in 10.0 mi West 19.6 mph 25.3 mph N/A   Overcast
4:52 PM 64.9 °F - 32.0 °F 29% 29.74 in 10.0 mi West 16.1 mph 26.5 mph N/A   Overcast
5:52 PM 63.0 °F - 32.0 °F 31% 29.75 in 10.0 mi West 16.1 mph 27.6 mph N/A   Partly Cloudy
6:52 PM 62.1 °F - 32.0 °F 32% 29.75 in 10.0 mi West 10.4 mph - N/A   Clear
7:52 PM 54.0 °F - 34.0 °F 47% 29.76 in 10.0 mi West 6.9 mph - N/A   Clear
8:52 PM 44.1 °F - 35.1 °F 71% 29.78 in 10.0 mi Calm Calm - N/A   Clear
9:52 PM 44.1 °F - 36.0 °F 73% 29.78 in 10.0 mi Calm Calm - N/A   Clear
10:52 PM 43.0 °F - 36.0 °F 76% 29.77 in 10.0 mi Calm Calm - N/A   Clear
11:52 PM 39.9 °F - 35.1 °F 83% 29.75 in 10.0 mi Calm Calm - N/A   Clear